STARLINK-35914

Last updated on Fri Dec 19 2025 00:02:05 GMT+0000 (Coordinated Universal Time)

1 66532U 25265S 25352.47173109 .00061920 00000+0 14801-2 0 9994 2 66532 43.0020 20.8184 0001902 286.4602 73.6045 15.40648453 4645
UTC large
Height (km)
Speed (km/s)
/
Latitude / Longitude
Inclination (degrees)
Orbital Period (minutes)
Azimuth
Elevation
Range (km)
Doppler Factor

Next 0 passes for location: London (51.5072 / 0.1276)

Sorry there are no passes over London.